sat.trackr.live / text

‹ back to catalog

ONEWEB-0568

NORAD 56062 · 2023-043S

PAYLOAD ACTIVE UNKNOWN

§ Identity

Operator
Country
UK
Launch date
2023-03-26
Launch site
SRILR
Launch vehicle
Mass (kg)
RCS (m²)

Purposes: comms

External: N2YO · Heavens-Above · Gunter

§ Orbital elements

Epoch: 2026-05-25T05:05:03.191136Z

Period
109.37 min
Inclination
87.9103°
Eccentricity
0.0002262
Mean motion
13.16593081 rev/d
Perigee alt
1,196.0 km
Apogee alt
1,199.5 km
Semi-major
7,575.9 km
B*
1.1315e-4
RAAN
233.3329°
Arg perigee
105.7411°
Mean anomaly
254.3970°
Rev number
15,595

§ Raw data

ONEWEB-05681 56062U 23043S   26145.21184249  .00000056  00000+0  11315-3 0  99942 56062  87.9103 233.3329 0002262 105.7411 254.3970 13.16593081155957

JSON: /api/v1/satellites/56062 · /tle

For live sub-satellite position, see the globe view (requires WebGL).

§ Visibility from observer

Set your observer location to see the next 7 days of passes ≥ 10°. The values pass through the URL so the page stays shareable.

No JS? Fill the form by hand. The geolocation button needs JavaScript.